Portada
METAR-TAF:

METAR-TAF

Aeroports :

San Juan de los Morros, Veneçuela

latitud: 09-55N, longitud: 067-20W, altitud: 429 m

Observació

L'informe es va fer fa 1 hora i 29 minuts, a les 04:03 UTC
Vent 2 kt del Est/Nord-Est
Temperatura 22°C
Humitat 100%
Pressió 1013 hPa

METAR: SVJM 280403Z AUTO 07002KT NCD 22/22 Q1013

Hora: 01:32 (05:32 UTC)


TAF: manca

Observacions i pronòstics meteorològics de més de 4000 aeroports (METAR i TAF).

Les estacions disponibles són els punts grocs i vermells al mapa.

Posi el ratolí al punt desitjat per veure el nom de l'estació.

Feu clic per veure les observacions i els pronòstics meteorològics.

Per canviar el mapa: feu clic els botons verds amb una creu de color negre per apropar; al botó verd amb un guió per allunyar la imatge; o en les fletxes verdes per a mapes adjacents.


METAR-TAF: